Regional Weather Roundup
Issued by NWS

Home | Current Version | Previous Version | Text Only | Print | Product List | Glossary Off
Versions: 1 2 3 4 5 6 7 8 9 10 11 12 13 14 15 16 17 18 19 20 21 22 23 24 25 26 27 28 29 30 31 32 33 34 35 36 37 38 39 40 41 42 43 44 45 46 47 48 49 50

000
ASUS43 KOAX 212202
RWRNE

WEATHER ROUNDUP FOR NEBRASKA
NATIONAL WEATHER SERVICE OMAHA NE
400 PM CST SUN DEC 21 2014

NOTES: SATELLITE DATA IS BEING USED TO AUGMENT CLOUD COVER ABOVE
       12000 FEET.
       "FAIR" INDICATES FEW OR NO CLOUDS BELOW 12,000 FEET WITH NO
       SIGNIFICANT WEATHER AND/OR OBSTRUCTIONS TO VISIBILITY.

  * THESE STATIONS DO NOT REPORT WEATHER SUCH AS RAIN...SNOW OR FOG.

NEZ001>004-019>022-054>056-212300-
NEBRASKA PANHANDLE

CITY           SKY/WX    TMP DP  RH WIND       PRES   REMARKS
SCOTTSBLUFF    CLOUDY    43  33  68 W9        29.45S
ALLIANCE       CLOUDY    41  31  67 SW16      29.43S
CHADRON        CLOUDY    44  31  60 W10       29.42R
SIDNEY         CLOUDY    44  29  55 W5        29.50F
$$

NEZ057>060-069>072-079>082-212300-
SOUTHWEST NEBRASKA

CITY           SKY/WX    TMP DP  RH WIND       PRES   REMARKS
NORTH PLATTE   CLOUDY    42  31  64 SE7       29.51F
IMPERIAL       CLOUDY    45  31  58 S8        29.51F
MCCOOK         CLOUDY    38  32  79 S9        29.57S WCI  31
$$

NEZ005>010-023>029-035>040-094-212300-
NORTH CENTRAL NEBRASKA

CITY           SKY/WX    TMP DP  RH WIND       PRES   REMARKS
VALENTINE      CLOUDY    41  32  70 S12       29.42F
BROKEN BOW     CLOUDY    37  33  85 S10       29.56S WCI  30
$$

NEZ041-046>049-061>064-073>077-083>087-212300-
SOUTH CENTRAL NEBRASKA

CITY           SKY/WX    TMP DP  RH WIND       PRES   REMARKS
GRAND ISLAND   CLOUDY    41  38  89 S15       29.63F
HASTINGS       CLOUDY    41  37  86 S14G23    29.62S
KEARNEY *      CLOUDY    39  36  87 S13       29.62R WCI  32
$$

NEZ011>018-030>034-042>045-212300-
NORTHEAST NEBRASKA

CITY           SKY/WX    TMP DP  RH WIND       PRES   REMARKS
NORFOLK        CLOUDY    40  38  93 S12       29.61F FOG     WCI  33
COLUMBUS *     CLOUDY    41  36  81 S16G22    29.67S
TEKAMAH        CLOUDY    42  38  85 S24       29.71F
$$

NEZ050>053-065>068-078-088>093-212300-
SOUTHEAST NEBRASKA

CITY           SKY/WX    TMP DP  RH WIND       PRES   REMARKS
LINCOLN        CLOUDY    42  39  89 S18       29.71F
OMAHA EPPLEY   CLOUDY    42  38  85 S15       29.74F
FALLS CITY     CLOUDY    43  39  86 S14       29.79S
$$

NEZ044-045-051>053-067-212300-
OMAHA AREA

CITY           SKY/WX    TMP DP  RH WIND       PRES   REMARKS
OMAHA EPPLEY   CLOUDY    42  38  85 S15       29.74F
OFFUTT AFB     CLOUDY    41  39  93 S13       29.74F
$$


USA.gov is the U.S. government's official web portal to all federal, state and local government web resources and services.